This is the latest recevied weather packets stored in our database for station/object W0WC. If no packets are shown the sender has not sent any weather packets the latest 10 day(s).
| Time | Temp. | Humidity | Pressure | Rain* | Wind** | Luminosity | Snow |
|---|---|---|---|---|---|---|---|
| 1778089342 | 15° C | 47% | 1019.2 hPa | 0 mm | - | 837 W/m² | - |
| 1778089040 | 14.44° C | 46% | 1019.2 hPa | 0 mm | - | 803 W/m² | - |
| 1778088736 | 15° C | 44% | 1019.1 hPa | 0 mm | - | 814 W/m² | - |
| 1778088433 | 15° C | 47% | 1019.2 hPa | 0 mm | - | 819 W/m² | - |
| 1778088130 | 15° C | 46% | 1019.2 hPa | 0 mm | - | 806 W/m² | - |
| 1778087827 | 13.89° C | 47% | 1019.1 hPa | 0 mm | - | 810 W/m² | - |
| 1778087525 | 13.89° C | 47% | 1019.1 hPa | 0 mm | - | 719 W/m² | - |
| 1778087222 | 13.89° C | 47% | 1019.3 hPa | 0 mm | - | 518 W/m² | - |
| 1778086919 | 13.89° C | 46% | 1019.5 hPa | 0 mm | - | 495 W/m² | - |
| 1778086617 | 13.89° C | 49% | 1019.6 hPa | 0 mm | - | 387 W/m² | - |
| 1778086313 | 13.89° C | 50% | 1019.5 hPa | 0 mm | - | 387 W/m² | - |
| 1778086010 | 13.33° C | 50% | 1019.5 hPa | 0 mm | - | 305 W/m² | - |
| 1778085708 | 13.33° C | 48% | 1019.5 hPa | 0 mm | - | 382 W/m² | - |
| 1778085404 | 13.89° C | 49% | 1019.1 hPa | 0 mm | - | 362 W/m² | - |
| 1778085099 | 13.33° C | 50% | 1018.9 hPa | 0 mm | - | 411 W/m² | - |
| 1778084795 | 13.89° C | 51% | 1019 hPa | 0 mm | - | 337 W/m² | - |
| 1778084493 | 13.33° C | 53% | 1018.7 hPa | 0 mm | - | 340 W/m² | - |
| 1778084190 | 13.89° C | 52% | 1018.6 hPa | 0 mm | - | 381 W/m² | - |
| 1778083887 | 13.89° C | 53% | 1018.3 hPa | 0 mm | - | 389 W/m² | - |
| 1778083585 | 13.89° C | 54% | 1018.2 hPa | 0 mm | - | 450 W/m² | - |
| 1778083281 | 13.89° C | 53% | 1018.1 hPa | 0 mm | - | 557 W/m² | - |
| 1778082980 | 13.33° C | 54% | 1018.3 hPa | 0 mm | - | 820 W/m² | - |
| 1778082677 | 12.22° C | 58% | 1018 hPa | 0 mm | - | 706 W/m² | - |
| 1778081538 | 12.22° C | 56% | 1018.3 hPa | 0 mm | - | 344 W/m² | - |
| 1778081235 | 12.22° C | 57% | 1018.2 hPa | 0 mm | - | 771 W/m² | - |
* Rain latest hour (hover to see other rain measurements)
** Current wind speed in m/s (hover to see current wind gust speed)